Daviess Cnty AP, Washington,, IN

12:41 AM EDT on August 17, 2017 (GMT -0400)
Daviess County

Weather History for KDCY - February, 2014

Change the Weather History Date:

Wednesday, February 12, 2014

  Actual Average (KLWV) Record (KLWV)
Temperature  
Mean Temperature 15 °F -  
Max Temperature 30 °F 41 °F 63 °F (2017)
Min Temperature 0 °F 26 °F 5 °F (2014)
Degree Days  
Heating Degree Days 50    
Moisture  
Dew Point 8 °F    
Average Humidity 72    
Maximum Humidity 86    
Minimum Humidity 57    
Precipitation  
Precipitation 0.00 in - - ()
Sea Level Pressure  
Sea Level Pressure 30.18 in    
Wind  
Wind Speed 1 mph (North)    
Max Wind Speed 7 mph    
Max Gust Speed -    
Visibility 10 miles    
Events      
Averages and records for this station are not official NWS values.
T = Trace of Precipitation, MM = Missing Value Source: NWS Daily Summary

Daily Weather History Graph

Daily Weather History Graph

Search for Another Location

Airport or City:

Trip Planner

Search our weather history database for the weather conditions in past years. The results will help you decide how hot, cold, wet, or windy it might be!

Date:

Astronomy

Feb. 12, 2014 Rise Set
Actual Time 7:43 AM EST 6:22 PM EST
Civil Twilight 7:15 AM EST 6:50 PM EST
Nautical Twilight 6:44 AM EST 7:21 PM EST
Astronomical Twilight 6:13 AM EST 7:52 PM EST
Moon 4:36 PM EST (2/12) 5:59 AM EST (2/12)
Length of Visible Light 11h 34m
Length of Day
10h 39m
Waxing Gibbous, 95% of the Moon is Illuminated
Feb 12
Waxing Gibbous
Feb 14
Full
Feb 22
Last Quarter
Mar 1
New
Mar 8
First Quarter

Hourly Weather History & Observations

Time (EST) Temp. Windchill Dew Point Humidity Pressure Visibility Wind Dir Wind Speed Gust Speed Precip Events Conditions
12:15 AM 7.2 °F - 1.2 °F 77% 30.38 in 7.0 mi Calm Calm - N/A   Clear
12:35 AM 6.4 °F - -0.4 °F 74% 30.37 in 10.0 mi Calm Calm - N/A   Clear
12:55 AM 6.3 °F - 0.1 °F 76% 30.37 in 10.0 mi Calm Calm - N/A   Clear
1:15 AM 7.7 °F 1.0 °F 1.0 °F 74% 30.36 in 10.0 mi NE 3.5 mph - N/A   Clear
1:35 AM 6.8 °F - -0.4 °F 72% 30.35 in 10.0 mi Calm Calm - N/A   Clear
1:55 AM 4.8 °F - -1.1 °F 76% 30.35 in 10.0 mi Calm Calm - N/A   Clear
2:15 AM 5.0 °F -2.1 °F -0.4 °F 78% 30.34 in 10.0 mi East 3.5 mph - N/A   Clear
2:35 AM 5.5 °F - -0.2 °F 77% 30.33 in 10.0 mi Calm Calm - N/A   Clear
2:55 AM 5.4 °F - -0.6 °F 76% 30.32 in 10.0 mi Calm Calm - N/A   Clear
3:15 AM 4.6 °F - -0.2 °F 80% 30.31 in 10.0 mi Calm Calm - N/A   Clear
3:35 AM 4.1 °F - -1.1 °F 79% 30.30 in 10.0 mi Calm Calm - N/A   Clear
3:55 AM 5.5 °F - 0.3 °F 79% 30.29 in 10.0 mi Calm Calm - N/A   Clear
4:15 AM 4.5 °F -2.7 °F -0.4 °F 80% 30.28 in 10.0 mi NNE 3.5 mph - N/A   Clear
4:35 AM 4.3 °F -2.9 °F -0.4 °F 81% 30.28 in 10.0 mi NNE 3.5 mph - N/A   Clear
4:55 AM 4.1 °F - -0.6 °F 81% 30.27 in 10.0 mi Calm Calm - N/A   Clear
5:15 AM 2.3 °F - -2.0 °F 82% 30.28 in 10.0 mi Calm Calm - N/A   Clear
5:35 AM 3.7 °F - -0.4 °F 83% 30.28 in 10.0 mi Calm Calm - N/A   Clear
5:55 AM 3.9 °F - -0.6 °F 82% 30.28 in 10.0 mi Calm Calm - N/A   Clear
6:15 AM 0.9 °F - -2.9 °F 84% 30.27 in 10.0 mi Calm Calm - N/A   Clear
6:35 AM 0.5 °F - -3.5 °F 83% 30.27 in 10.0 mi Calm Calm - N/A   Clear
6:55 AM 0.3 °F - -3.3 °F 85% 30.26 in 10.0 mi Calm Calm - N/A   Clear
7:15 AM 1.6 °F - -1.8 °F 86% 30.26 in 10.0 mi Calm Calm - N/A   Clear
7:35 AM 3.0 °F - -0.8 °F 84% 30.26 in 10.0 mi Calm Calm - N/A   Clear
7:55 AM 3.0 °F - -0.4 °F 86% 30.25 in 10.0 mi Calm Calm - N/A   Clear
8:15 AM 4.1 °F - 0.3 °F 84% 30.26 in 10.0 mi Calm Calm - N/A   Clear
8:35 AM 6.3 °F - 1.8 °F 82% 30.25 in 10.0 mi Calm Calm - N/A   Clear
8:55 AM 7.7 °F - 3.0 °F 81% 30.25 in 7.0 mi Calm Calm - N/A   Clear
9:15 AM 8.4 °F - 3.6 °F 81% 30.25 in 10.0 mi Calm Calm - N/A   Clear
9:35 AM 9.9 °F - 3.9 °F 77% 30.25 in 10.0 mi Calm Calm - N/A   Clear
9:55 AM 11.3 °F - 4.1 °F 73% 30.25 in 10.0 mi Calm Calm - N/A   Clear
10:15 AM 12.7 °F - 5.2 °F 72% 30.25 in 10.0 mi Calm Calm - N/A   Clear
10:35 AM 15.1 °F - 7.7 °F 73% 30.25 in 7.0 mi Calm Calm - N/A   Clear
10:55 AM 18.3 °F 11.5 °F 8.6 °F 66% 30.24 in 10.0 mi ESE 4.6 mph - N/A   Clear
11:15 AM 19.2 °F 14.1 °F 8.8 °F 64% 30.23 in 10.0 mi NE 3.5 mph - N/A   Clear
11:35 AM 18.9 °F 10.8 °F 9.5 °F 67% 30.22 in 10.0 mi ENE 5.8 mph - N/A   Clear
11:55 AM 20.1 °F 13.6 °F 9.7 °F 64% 30.21 in 10.0 mi NE 4.6 mph - N/A   Clear
12:15 PM 21.2 °F 16.4 °F 10.2 °F 63% 30.19 in 10.0 mi ENE 3.5 mph - N/A   Clear
12:35 PM 23.0 °F 18.4 °F 11.7 °F 62% 30.18 in 10.0 mi NE 3.5 mph - N/A   Clear
12:55 PM 23.9 °F - 12.0 °F 61% 30.16 in 10.0 mi Calm Calm - N/A   Clear
1:15 PM 25.9 °F - 12.6 °F 57% 30.15 in 10.0 mi Calm Calm - N/A   Clear
1:35 PM 26.8 °F 20.2 °F 15.3 °F 62% 30.14 in 10.0 mi NW 5.8 mph - N/A   Clear
1:55 PM 26.1 °F 20.5 °F 14.5 °F 62% 30.13 in 10.0 mi WNW 4.6 mph - N/A   Clear
2:15 PM 26.6 °F 22.6 °F 14.9 °F 61% 30.11 in 10.0 mi NW 3.5 mph - N/A   Clear
2:35 PM 27.0 °F - 15.1 °F 61% 30.10 in 10.0 mi Calm Calm - N/A   Clear
2:55 PM 27.5 °F 21.1 °F 16.3 °F 63% 30.09 in 10.0 mi WNW 5.8 mph - N/A   Clear
3:15 PM 27.9 °F 21.5 °F 16.5 °F 62% 30.09 in 10.0 mi NW 5.8 mph - N/A   Clear
3:35 PM 28.4 °F 21.2 °F 16.3 °F 61% 30.07 in 10.0 mi NW 6.9 mph - N/A   Clear
3:55 PM 28.8 °F 22.6 °F 17.6 °F 63% 30.07 in 10.0 mi NW 5.8 mph - N/A   Clear
4:15 PM 29.3 °F 23.2 °F 18.1 °F 63% 30.06 in 10.0 mi NW 5.8 mph - N/A   Clear
4:35 PM 29.8 °F 23.9 °F 19.2 °F 65% 30.05 in 10.0 mi North 5.8 mph - N/A   Clear
4:55 PM 30.2 °F 25.4 °F 18.3 °F 61% 30.05 in 10.0 mi North 4.6 mph - N/A   Clear
5:15 PM 30.2 °F - 18.7 °F 62% 30.05 in 10.0 mi Calm Calm - N/A   Clear
5:35 PM 29.3 °F - 18.5 °F 64% 30.04 in 10.0 mi Calm Calm - N/A   Clear
5:55 PM 27.0 °F 23.0 °F 18.7 °F 71% 30.04 in 10.0 mi NNW 3.5 mph - N/A   Clear
6:15 PM 27.5 °F - 16.5 °F 63% 30.04 in 10.0 mi Calm Calm - N/A   Clear
6:35 PM 25.2 °F - 15.8 °F 68% 30.04 in 10.0 mi Calm Calm - N/A   Clear
6:55 PM 23.2 °F - 15.3 °F 72% 30.04 in 10.0 mi Calm Calm - N/A   Clear
7:15 PM 22.3 °F 14.9 °F 14.7 °F 73% 30.05 in 10.0 mi NW 5.8 mph - N/A   Clear
7:35 PM 22.6 °F 18.0 °F 14.5 °F 71% 30.05 in 10.0 mi NW 3.5 mph - N/A   Clear
7:55 PM 20.8 °F - 15.1 °F 78% 30.05 in 10.0 mi Calm Calm - N/A   Clear
8:15 PM 22.1 °F 17.4 °F 14.2 °F 72% 30.05 in 10.0 mi NW 3.5 mph - N/A   Clear
8:35 PM 22.5 °F 16.3 °F 13.8 °F 69% 30.05 in 10.0 mi NNW 4.6 mph - N/A   Clear
8:55 PM 21.0 °F 14.6 °F 13.1 °F 71% 30.05 in 10.0 mi North 4.6 mph - N/A   Clear
9:15 PM 19.2 °F 12.5 °F 12.4 °F 75% 30.05 in 10.0 mi NNW 4.6 mph - N/A   Clear
9:35 PM 22.1 °F 14.7 °F 12.2 °F 66% 30.04 in 10.0 mi NNW 5.8 mph - N/A   Clear
9:55 PM 22.1 °F 14.7 °F 12.2 °F 66% 30.04 in 10.0 mi NNW 5.8 mph - N/A   Clear
10:15 PM 20.5 °F 15.6 °F 11.5 °F 68% 30.04 in 10.0 mi North 3.5 mph - N/A   Clear
10:35 PM 21.7 °F 17.0 °F 11.7 °F 65% 30.04 in 10.0 mi North 3.5 mph - N/A   Clear
10:55 PM 21.7 °F - 11.3 °F 64% 30.04 in 10.0 mi Calm Calm - N/A   Clear
11:15 PM 21.6 °F - 11.7 °F 66% 30.03 in 10.0 mi Calm Calm - N/A   Clear
11:35 PM 21.4 °F - 11.7 °F 66% 30.02 in 10.0 mi Calm Calm - N/A   Clear
11:55 PM 21.7 °F - 11.3 °F 64% 30.01 in 10.0 mi Calm Calm - N/A   Clear